CAPE
0 0 0 5 2 50 47 59 5 0 23 174 127 566 451 466 501 548 802 358 250 917 233 49 813 1200 1089 893 638 581 624 683 650 591 507 472 527 597 588 559 601 693 711 683 673 641 614 539 476
0 0 0 15 0 0 35 1 2 13 121 272 313 290 648 562 976 881 457 346 374 700 575 217 547 1286 1294 1025 827 625 562 570 567 575 621 674 716 733 729 744 705 638 624 582 483 338 210 131 88
0 0 0 29 0 11 44 17 2 32 96 301 257 542 705 729 775 979 863 716 520 609 1594 996 325 806 1087 815 629 541 524 551 608 715 736 726 745 835 898 848 850 910 1007 992 874 707 557 520 486
0 0 0 0 4 53 27 14 56 25 70 98 288 358 813 1128 762 986 735 505 567 632 1877 1089 704 413 587 855 906 882 803 829 820 755 721 664 627 630 728 911 998 1104 1229 1228 1164 1108 983 872 805
0 0 18 31 33 79 30 26 81 0 6 96 212 295 594 606 611 744 961 987 864 924 1181 944 893 829 587 565 753 850 916 908 942 882 834 815 807 765 785 905 963 975 1114 1213 1342 1427 1331 1208 1037
0 0 5 0 45 81 55 15 18 1 24 152 226 394 658 916 1121 1167 1329 1583 1094 996 1226 1236 911 954 868 827 656 646 740 807 791 889 961 979 909 814 732 727 679 660 642 664 710 708 719 758 792
0 0 1 53 16 44 9 42 6 0 0 88 193 289 812 1112 1244 1338 1220 903 821 929 1137 1646 1750 1803 1596 1436 1160 1093 976 898 1005 967 935 960 933 902 798 731 692 616 548 488 534 565 583 590 600
0 2 41 94 19 7 0 38 26 0 0 106 137 152 781 1168 1198 1144 782 455 440 536 563 500 1113 1920 2196 1900 1424 1465 1410 1417 1309 1225 1236 1269 1228 997 908 822 721 676 808 816 675 697 772 755 767
0 0 18 2 1 21 1 32 0 0 0 0 211 184 809 1338 1086 857 676 691 892 1010 1196 1427 1042 1032 1100 1354 1315 1102 1178 1005 1148 1284 1340 1417 1240 1136 1637 1720 1116 973 756 514 461 505 667 818 869
0 0 4 0 14 49 31 49 9 8 0 0 134 598 1080 1353 1220 1183 1004 838 988 1044 1280 1517 1570 1433 1271 991 1267 1407 1435 1351 1154 1308 1584 1648 1656 1718 1426 976 458 726 834 887 924 994 1142 1427 1310
0 0 0 0 0 50 46 41 33 17 3 13 74 495 1054 1237 1161 871 960 961 820 1189 1269 1318 1480 1440 1112 497 367 108 226 110 286 279 621 872 984 1374 1020 957 1347 1328 946 924 779 1042 1705 1197 1303
0 0 0 0 0 51 46 59 45 96 8 9 80 371 867 1103 764 632 570 700 1190 1133 1094 1198 881 484 627 89 0 0 0 0 0 163 164 122 7 49 34 46 143 208 290 323 421 486 459 1177 1020
0 0 0 0 0 42 15 62 33 80 81 126 199 464 802 1031 900 834 864 778 1001 715 494 157 185 493 639 203 35 72 17 2 71 0 14 8 12 75 0 0 0 0 0 4 19 104 243 411 694
0 0 0 0 0 2 2 26 36 73 219 151 423 470 854 1062 978 934 613 775 678 205 47 199 361 581 426 591 565 91 31 7 0 0 11 0 9 155 23 0 0 0 3 5 2 8 45 22 39
0 0 0 0 0 0 0 73 15 210 377 280 542 511 884 1176 1158 779 267 266 23 54 179 421 334 382 476 309 204 13 11 0 0 0 0 0 0 0 0 0 0 0 0 0 4 17 33 36 57
0 0 0 0 0 2 0 9 40 122 242 189 621 682 920 1303 1194 661 197 9 3 45 461 435 19 10 152 331 111 25 1 43 0 0 0 0 0 0 0 0 0 10 6 1 10 12 22 46 69
0 0 1 0 0 0 0 0 204 364 286 160 347 813 1133 1227 1229 687 70 9 35 212 262 208 193 4 217 9 15 0 0 0 0 3 7 5 0 0 0 5 1 24 26 24 34 60 53 24 68
0 0 0 0 0 0 0 0 0 52 26 60 160 639 1099 1118 1059 609 13 33 122 146 253 182 42 48 267 125 31 0 0 0 0 0 0 17 21 22 32 38 30 49 57 64 109 108 22 1 12
0 0 0 0 0 0 0 0 0 0 0 0 55 483 936 1094 1038 517 8 77 164 204 280 286 171 216 243 222 98 11 0 0 0 1 15 26 59 113 114 107 97 73 55 147 131 137 107 45 32
0 0 2 0 0 0 0 0 0 0 0 0 64 422 858 1074 956 247 6 62 186 264 374 419 354 383 588 551 371 336 158 47 51 60 194 245 54 45 32 36 71 107 104 157 217 182 140 78 68
0 0 0 0 0 0 0 0 0 0 0 4 164 445 748 931 710 39 38 49 197 336 436 358 458 792 735 457 99 0 0 0 0 0 7 31 7 0 20 12 32 41 44 23 82 128 112 45 58
0 0 0 0 0 0 0 0 1 0 0 20 93 310 547 598 484 191 178 254 375 390 321 243 111 47 1 0 0 0 0 0 0 0 2 4 0 0 0 2 22 40 31 37 29 49 60 132 103
0 0 0 0 0 0 0 0 11 0 0 1 23 106 323 470 582 577 511 339 214 0 0 0 0 0 0 0 0 0 0 0 0 0 1 8 0 8 12 13 23 28 19 12 22 31 35 21 146
0 0 0 0 0 1 0 0 26 0 0 0 0 9 138 292 373 450 409 94 0 0 0 0 0 0 0 0 0 0 5 14 18 14 12 8 8 12 25 29 13 9 13 15 16 24 20 17 32
0 0 0 0 8 12 0 0 4 0 0 0 0 0 2 20 87 202 189 1 0 0 0 0 0 0 0 0 0 1 6 18 20 16 13 11 13 12 8 11 6 8 13 16 15 15 22 17 8
0 0 0 0 0 0 0 1 1 0 0 0 0 0 4 40 5 2 0 0 0 0 0 0 0 0 0 0 0 3 13 5 2 6 7 8 11 17 12 23 19 12 21 25 21 19 16 20 12
0 0 0 0 0 0 19 2 1 0 0 0 0 0 0 0 0 0 0 0 0 0 0 0 0 0 0 0 2 14 8 9 13 8 1 3 21 33 24 12 14 3 16 16 9 5 10 23 7
0 0 0 2 0 0 0 1 19 0 0 0 0 4 0 0 0 0 0 0 0 0 0 0 0 0 0 1 6 2 3 8 9 13 3 2 2 11 10 19 0 0 0 0 2 11 3 1 1
0 0 0 0 0 0 0 10 0 0 0 0 0 0 0 0 0 0 0 0 0 0 0 0 0 0 0 6 5 5 5 5 6 5 2 4 3 4 23 0 0 0 0 0 0 13 14 5 3
0 0 0 0 0 1 0 0 0 0 0 0 0 0 0 0 0 0 0 0 0 0 0 0 0 0 2 6 7 4 6 5 2 1 6 21 31 5 0 0 1 1 2 1 0 5 13 10 16
CIN
0 0 0 -71 -145 -3 -7 -6 -7 0 -54 -9 -6 -3 -3 -2 -4 0 -2 -21 -1 -3 -82 -166 -88 -35 -31 -37 -62 -73 -72 -67 -78 -88 -109 -115 -108 -96 -90 -82 -76 -58 -51 -49 -48 -50 -49 -53 -57
0 0 0 -18 0 0 -7 -8 -1 -60 -23 -4 -4 -2 -4 -4 -2 -2 -12 -17 -2 -2 -15 -84 -108 -16 -8 -22 -36 -61 -73 -81 -90 -93 -84 -80 -74 -72 -75 -68 -69 -69 -66 -67 -70 -84 -99 -108 -126
0 0 0 -10 0 -34 -9 -7 -5 -37 -14 -5 -6 -4 -2 -1 -1 -2 -10 -6 -11 -2 -4 -71 -150 -73 -35 -68 -90 -111 -117 -108 -103 -76 -70 -63 -56 -47 -40 -55 -53 -44 -23 -19 -27 -45 -64 -64 -63
0 0 0 0 -8 -5 -4 -11 -6 -7 -7 -5 -3 -5 -11 -3 -1 -3 -15 0 -2 -2 -11 -88 -108 -144 -118 -77 -71 -68 -93 -92 -100 -102 -96 -100 -93 -82 -64 -47 -40 -26 -8 -5 -5 0 -6 -28 -34
0 0 -7 -10 -4 -3 -6 -4 -5 -2 -15 -3 -2 -3 -13 -31 -36 -35 -24 -2 -2 -2 -10 -76 -109 -104 -133 -127 -104 -87 -85 -85 -79 -87 -86 -80 -74 -71 -61 -42 -45 -43 -22 -10 -2 0 -1 -1 -10
0 0 -22 -14 -6 -7 -5 -4 -4 -1 -9 -2 -5 -3 -8 -8 -3 -12 -8 -1 -2 -3 -4 -55 -125 -113 -108 -109 -122 -125 -105 -98 -102 -96 -83 -81 -82 -84 -87 -75 -79 -73 -68 -63 -53 -51 -55 -48 -43
0 0 -61 -7 -8 -5 -3 -3 -5 0 0 -3 -4 -5 -3 -1 -2 -2 -2 -8 -4 -2 -1 -1 -11 -34 -63 -67 -82 -89 -97 -98 -86 -90 -95 -90 -92 -87 -84 -84 -89 -100 -101 -111 -98 -89 -79 -82 -79
0 -16 -9 -8 -100 -3 0 -3 -2 0 0 -26 -8 -8 -1 -9 -7 -10 -31 -51 -35 -11 -2 -19 -2 -3 -9 -53 -83 -75 -68 -63 -70 -78 -79 -71 -71 -79 -77 -80 -90 -98 -79 -83 -98 -90 -83 -76 -70
0 0 -23 -4 -22 -10 0 -5 0 0 0 0 -3 -6 -13 -21 -11 -20 -29 -27 -4 -6 -2 -3 -3 -1 -2 -2 -53 -104 -90 -89 -75 -69 -60 -52 -51 -6 -28 -8 -37 -56 -85 -122 -129 -123 -93 -74 -79
0 -8 -4 0 -8 -8 -5 -6 -3 -3 -1 0 -5 -21 -31 -18 -3 -2 -1 -2 -3 -2 -2 -2 -1 -2 -1 -1 -4 -1 -1 -2 -2 -3 -1 -1 -2 -2 -11 -20 -74 -61 -63 -67 -67 -55 -47 -53 -34
0 0 0 0 -1 -5 -6 -10 -4 -18 -8 -2 -7 -25 -23 -8 -2 -2 -3 -4 -14 -17 -8 -8 -25 -24 -34 -87 -70 -109 -57 -112 -67 -121 -71 -11 -2 -13 -1 -8 -17 -8 -31 -10 -18 -9 -19 -2 -4
0 0 0 0 0 -7 -5 -5 -6 -4 -67 -8 -4 -4 -2 -2 -8 -5 -1 -25 -25 -49 -31 -12 -90 -155 -158 -173 -8 0 0 0 -9 -133 -151 -135 -159 -158 -175 -113 -78 -14 -14 -8 -9 -3 -14 -3 -14
0 0 0 0 0 -6 -5 -4 -4 -7 -10 -7 -4 -3 -3 -1 -3 -18 -37 -41 -33 -54 -104 -179 -183 -174 -151 -174 -183 -167 -81 -69 -129 0 -171 -165 -159 -125 0 0 0 0 0 -77 -80 -16 -5 -3 -2
0 0 0 0 0 -1 0 -5 -5 -5 -12 -13 -6 -5 -1 -2 -3 -10 -48 -49 -76 -143 -209 -165 -135 -123 -126 -114 -112 -148 -144 -134 0 0 -149 0 -93 -66 -109 0 0 0 -1 -2 -2 -2 -39 -26 -20
0 0 0 0 0 0 0 -6 -19 -6 -17 -5 -4 -2 -2 -4 -2 -2 -45 -85 -182 -181 -152 -124 -130 -113 -123 -122 -133 -168 -142 0 -5 0 0 0 0 0 0 0 0 0 0 0 -1 -3 -2 -2 -3
0 0 0 -2 0 -7 0 -4 -7 -5 -23 -11 -4 -6 -4 -3 -2 -3 -56 -157 -203 -173 -120 -114 -113 -135 -136 -128 -138 -151 -15 -110 0 0 0 0 0 0 0 0 0 -2 -3 -1 -3 -1 -3 -3 -8
0 -1 -3 -1 0 0 0 0 -7 -20 -16 -13 -3 -3 -5 -4 -2 -6 -100 -166 -152 -115 -108 -115 -128 -74 -121 -155 -148 0 0 0 0 -1 -2 -2 0 0 0 -2 -1 -4 -4 -3 -2 -11 -19 -27 -4
0 0 0 0 0 0 0 0 0 -12 -28 -8 -5 -5 -5 -3 -5 -4 -133 -111 -107 -98 -104 -119 -147 -150 -118 -115 -108 0 0 0 0 0 0 -1 -2 -1 -1 -3 -5 -2 -1 -3 -7 -7 -15 -9 -10
0 0 0 0 0 0 0 0 0 0 0 0 -1 -5 -4 -3 -4 -15 -109 -99 -77 -89 -88 -100 -112 -100 -90 -71 -67 -84 0 0 0 -2 -2 -4 -2 -1 -2 -11 -3 -2 -1 -3 -3 -1 -8 -2 -1
0 0 -2 0 0 0 0 0 0 0 0 0 -6 -3 -4 -3 -2 -7 -96 -76 -52 -62 -80 -86 -78 -62 -26 -10 -15 -11 -9 -7 -2 -4 -4 -5 -32 -25 -4 -11 -6 -5 -2 -1 -4 -3 -3 -4 -3
0 0 0 0 0 0 0 0 0 0 0 -37 -14 -3 -4 -3 -3 -17 -36 -26 -12 -20 -45 -46 -30 -17 -12 -40 -54 0 0 0 0 0 -9 -15 -22 0 -35 -21 -3 -2 -2 -2 -2 -4 -6 -27 -17
0 0 0 0 0 0 0 0 -19 0 0 -60 -49 -20 -3 -3 -5 -7 -2 -3 -2 -4 -11 -30 -115 -141 -5 0 0 0 0 0 0 0 -3 -9 0 0 0 -1 -1 -2 -2 -2 -1 -4 -4 -6 -8
0 0 0 0 0 0 0 0 -52 0 0 -4 -13 -15 -5 -5 -6 -2 -5 -5 -42 0 0 0 0 0 0 0 0 0 0 0 0 0 -3 -2 0 -2 -2 -3 -2 -3 -12 -22 -13 -8 -3 -7 -17
0 0 0 0 0 -4 0 0 -4 0 0 0 0 -28 -2 -6 -3 -3 -6 -46 0 0 0 0 0 0 0 0 0 0 -1 -1 -2 -2 -2 -3 -2 -2 -2 -6 -15 -26 -16 -7 -8 -1 -6 -6 -4
0 0 0 0 -4 -8 0 0 -3 0 0 0 0 0 -2 -4 -4 -2 -11 -1 0 0 0 0 0 0 0 0 0 -1 -1 -2 -3 -3 -3 -3 -2 -3 -6 -12 -15 -10 -5 -2 -2 -1 0 -2 -3
0 0 0 0 0 -1 0 -1 -1 0 0 0 0 0 -2 -3 -1 -1 0 0 0 0 0 0 0 0 0 0 0 -1 -2 -10 -13 -14 -11 -5 -2 -2 -1 -1 -2 -1 -1 -1 -1 -1 0 -1 -4
0 0 0 0 0 0 -6 -5 -7 0 0 0 0 0 0 0 0 0 0 0 0 0 0 0 0 0 0 0 -2 -2 -6 -1 -2 -1 -6 -6 -1 -1 -1 -1 -2 -2 -1 -1 -1 -4 -1 -1 -6
0 0 0 -3 0 0 -2 -3 -12 0 0 0 0 -3 -1 0 0 0 0 0 0 0 0 0 0 0 0 -2 -3 -4 -6 -1 -2 -1 -1 -1 -10 -1 -2 -1 0 -3 0 0 -8 -7 -1 -8 -5
0 0 0 0 0 0 0 -5 0 0 0 0 0 0 0 0 0 0 0 0 0 0 0 0 0 0 0 -3 -2 -1 -2 -2 -1 -1 -2 -1 -2 -8 -1 0 0 0 0 0 0 -1 -1 -10 -4
0 0 0 0 0 -5 0 0 0 0 0 0 0 0 0 0 0 0 0 0 0 0 0 0 0 0 -3 -2 -1 -2 -3 -3 -4 -3 0 0 0 -4 0 0 0 0 0 0 0 -3 -4 -5 -1
Wind_Speed
10 11 13 14 13 16 24 23 27 25 24 23 23 22 18 22 18 13 16 16 14 14 12 12 12 12 13 14 13 13 13 14 15 15 16 16 17 17 17 18 18 18 17 17 17 18 18 18 18
12 14 15 15 7 8 24 24 27 28 24 22 24 22 23 21 23 19 18 17 14 13 13 12 13 13 14 14 14 14 14 14 15 15 16 17 17 17 17 17 17 17 17 17 18 18 18 19 19
13 15 15 17 21 15 22 24 26 27 25 20 24 22 22 23 21 20 21 20 17 16 15 14 13 13 13 13 13 13 13 13 14 15 16 18 18 18 19 19 19 19 19 19 19 19 19 19 20
14 16 15 9 16 21 21 22 24 25 24 23 20 24 23 19 20 21 22 21 21 18 16 15 14 14 14 13 13 12 12 13 14 15 15 16 17 20 21 21 21 22 22 22 21 21 21 21 21
15 12 15 11 19 18 22 23 23 25 24 23 23 24 24 23 23 23 23 22 21 20 19 17 14 13 13 13 13 12 11 11 12 13 15 17 18 20 21 23 24 23 24 23 23 23 23 22 22
14 13 14 9 19 20 21 22 23 25 24 24 24 23 23 23 23 23 23 23 22 21 21 20 17 16 16 14 13 13 12 11 9 9 13 13 13 10 13 17 19 21 23 24 24 24 23 23 23
15 14 19 13 17 19 20 19 22 24 23 21 22 22 21 22 22 22 22 22 21 20 19 20 19 17 16 15 13 12 11 9 8 6 6 6 3 3 5 6 8 12 17 21 23 24 24 22 21
16 13 12 15 18 19 19 20 20 22 22 20 19 19 19 20 21 21 20 20 19 19 18 18 16 16 15 17 15 13 12 10 8 7 6 7 7 3 6 7 7 9 13 17 20 22 22 21 21
16 15 7 13 17 15 17 18 20 20 21 20 22 22 21 23 22 20 19 19 18 18 18 18 18 18 17 18 17 14 13 12 11 9 8 13 10 12 9 8 17 17 18 18 18 20 18 16 16
16 14 14 14 14 14 15 15 17 17 18 20 21 22 23 22 21 19 18 18 17 18 17 18 19 18 19 18 18 17 16 18 21 25 25 19 27 23 23 21 17 19 18 21 18 18 19 18 16
16 15 14 14 16 13 15 14 16 14 15 17 17 18 19 18 17 17 17 17 18 17 18 17 18 19 20 20 19 21 21 23 22 25 26 26 25 26 24 26 18 20 21 22 18 22 18 24 31
16 13 3 14 15 13 13 12 13 11 13 13 15 16 15 14 14 15 16 17 16 16 17 17 18 19 20 20 21 21 22 23 24 25 26 27 27 27 28 27 28 27 27 29 28 29 32 31 36
16 13 12 12 12 11 12 11 9 10 14 14 14 13 12 11 11 13 14 16 15 15 16 17 18 19 19 21 21 22 24 25 25 26 26 27 27 26 28 28 27 29 29 29 30 30 30 31 31
13 13 12 11 11 12 8 9 9 9 11 9 10 9 9 8 9 11 11 12 13 14 15 17 18 19 19 21 22 22 24 24 26 26 27 28 28 27 27 28 29 29 29 30 31 31 31 32 33
12 10 10 10 11 9 8 4 5 7 8 6 6 6 5 6 7 7 9 11 11 13 14 16 16 18 20 21 23 24 24 27 27 28 27 27 29 28 29 30 30 30 30 32 31 31 31 31 30
10 8 6 12 10 9 8 5 8 6 6 4 3 2 2 4 3 5 8 10 11 11 13 16 18 19 21 23 24 25 26 28 28 29 29 29 27 30 30 31 32 31 32 34 32 32 32 31 32
10 7 10 9 10 8 7 4 11 6 5 6 1 1 1 0 1 4 5 7 8 11 13 15 18 20 24 24 26 26 26 27 29 28 29 30 30 32 32 31 33 33 35 34 34 32 31 33 33
8 13 11 7 10 8 2 1 2 3 7 7 4 3 2 2 1 2 2 6 8 11 14 17 19 22 24 25 24 24 28 29 31 33 32 31 32 34 33 33 32 32 34 34 34 35 33 38 33
19 11 6 8 12 10 4 4 11 12 11 8 5 3 3 2 1 2 0 5 9 12 16 19 22 22 25 26 29 29 30 35 34 34 34 33 31 27 27 31 33 31 32 31 32 34 35 33 33
8 6 6 13 8 6 5 4 3 11 13 12 5 3 3 2 1 1 2 6 11 15 19 21 21 23 26 28 30 31 33 32 32 33 30 29 26 26 32 33 34 35 35 33 32 32 32 34 33
5 11 18 12 12 5 3 7 3 12 16 13 9 9 5 3 2 2 4 8 14 18 22 21 23 26 28 29 30 31 33 34 35 34 34 33 33 33 34 35 35 34 33 35 35 33 32 32 31
14 21 11 8 7 10 17 14 11 15 16 14 11 6 4 2 2 3 4 8 15 19 21 23 26 26 27 30 32 34 34 36 35 34 33 36 36 36 36 32 30 31 32 31 30 29 34 35 37
24 20 10 10 9 8 7 14 13 14 19 20 11 8 4 2 2 3 6 14 21 21 22 22 23 27 29 31 32 34 36 36 35 34 36 36 34 28 29 31 31 31 32 33 34 34 33 32 34
19 13 5 4 9 8 15 20 16 21 22 20 19 17 10 6 4 5 11 18 18 19 23 25 27 28 29 30 32 34 34 35 35 35 32 30 30 30 29 30 31 31 32 34 34 33 33 32 33
25 29 22 14 8 19 15 17 18 20 21 20 20 17 14 11 9 9 15 16 19 21 23 27 29 30 29 30 33 33 34 33 32 32 33 31 31 30 30 31 30 29 28 29 28 30 31 34 34
20 25 20 22 21 22 13 17 16 18 19 18 19 18 16 13 17 15 15 18 21 25 27 28 29 30 30 31 32 32 32 32 32 31 32 30 27 26 26 28 28 29 30 29 29 29 29 32 34
26 22 21 15 7 11 15 17 13 15 18 16 19 21 17 15 14 12 14 16 22 25 26 27 27 28 31 32 30 31 30 31 30 28 26 24 24 26 28 30 31 31 28 25 27 27 30 32 32
17 23 15 10 19 20 20 21 18 18 22 21 24 20 13 14 13 12 15 17 21 24 25 26 29 30 31 30 30 32 31 28 29 29 25 24 24 23 27 27 31 30 29 27 23 22 27 31 31
24 16 14 16 15 20 19 20 19 22 23 24 26 23 18 14 13 15 18 21 22 23 26 28 29 31 29 29 33 30 29 26 28 28 27 26 28 28 28 29 29 25 22 18 15 17 21 29 30
20 16 18 16 16 14 19 21 20 23 25 27 24 21 19 18 18 19 20 22 23 26 27 29 30 29 28 30 31 31 29 29 27 25 25 26 26 29 31 29 20 18 16 12 11 5 11 24 29
Wind_Direction
126 159 187 203 228 126 43 38 26 5 20 22 51 14 3 2 355 355 54 46 38 36 36 44 33 34 38 39 36 25 18 16 14 13 18 22 20 17 12 8 5 2 358 354 352 347 341 340 339
205 204 185 129 190 211 33 34 25 33 64 76 54 72 38 15 37 49 51 45 25 33 45 46 47 44 43 36 37 36 33 27 20 15 6 1 1 2 5 2 360 359 356 353 349 346 341 333 326
182 190 214 136 80 46 37 37 32 44 48 74 59 28 28 48 17 53 68 71 49 57 49 55 59 54 51 48 45 44 38 40 25 15 6 352 342 338 333 339 340 342 342 342 339 336 334 332 326
169 186 172 279 5 18 28 38 52 47 55 47 70 52 45 7 42 56 74 90 83 54 38 51 60 71 75 68 53 41 28 18 11 6 7 4 350 335 326 323 322 317 319 321 324 324 322 322 318
183 186 145 27 31 24 27 38 34 27 31 47 54 52 48 47 60 68 78 70 65 49 52 64 55 50 54 68 68 64 53 33 23 13 4 357 349 342 332 321 318 318 314 316 317 316 315 315 315
217 188 328 48 48 43 33 55 47 37 49 62 60 51 48 71 71 76 80 79 67 60 57 72 68 63 79 72 84 102 119 137 125 49 10 10 13 17 2 347 338 329 321 317 316 316 318 314 312
226 214 109 40 53 56 39 85 29 36 44 52 68 56 66 69 74 77 69 72 69 62 54 73 75 73 74 72 72 74 80 96 102 120 149 167 127 59 26 14 3 349 336 327 320 315 314 316 319
208 197 154 48 116 38 51 48 61 41 45 58 79 61 72 71 78 74 67 63 56 45 47 53 70 75 81 65 63 65 65 72 77 69 60 37 24 21 12 1 350 348 341 334 325 319 317 317 314
190 199 112 308 348 32 56 55 26 52 61 54 41 50 71 92 84 73 67 66 51 33 22 15 28 38 36 30 49 63 61 54 51 50 41 18 16 1 0 352 344 338 331 328 324 319 319 318 313
184 211 342 315 23 33 58 65 63 82 64 61 57 62 86 92 85 74 73 48 30 25 15 7 10 32 29 28 27 32 29 18 3 349 347 356 339 344 339 338 335 336 332 326 321 320 317 315 306
187 310 346 23 319 23 69 77 78 98 86 78 75 82 89 86 76 66 62 37 27 29 25 30 23 15 6 12 13 5 7 360 3 359 354 350 348 347 345 338 347 340 335 328 330 319 316 310 300
177 43 6 26 26 172 75 77 78 112 95 55 85 91 90 84 72 47 41 50 41 35 28 21 19 19 15 17 14 15 11 4 1 359 357 353 348 345 342 339 335 332 329 324 319 314 307 306 299
166 84 95 91 100 140 55 89 81 85 31 41 75 86 91 87 60 40 39 38 45 39 26 25 24 23 21 16 13 6 0 358 357 357 358 354 350 347 342 340 337 333 329 325 321 317 315 309 304
59 85 100 105 109 54 97 86 67 31 51 68 62 92 92 82 62 47 43 49 46 50 44 34 23 19 17 12 8 3 0 357 353 351 349 347 345 344 340 338 336 332 329 326 320 316 313 309 305
88 123 90 106 82 82 96 140 93 70 59 78 80 91 86 67 63 54 54 47 54 47 39 30 25 17 10 7 359 356 354 349 347 344 344 342 340 339 336 332 332 330 331 325 321 316 313 309 307
149 120 140 98 69 73 75 41 232 115 67 65 91 106 75 43 61 54 53 46 49 44 25 17 11 8 2 358 354 351 346 343 341 340 338 336 337 335 333 330 327 328 325 321 319 315 312 307 306
107 111 69 52 50 52 67 44 31 42 16 356 316 239 339 287 22 48 65 44 34 18 12 6 358 355 351 350 347 343 342 342 339 337 335 334 333 329 327 326 324 324 319 317 316 316 316 309 308
32 30 49 54 45 61 68 287 354 22 356 339 298 249 264 229 175 76 79 21 10 3 357 352 349 347 346 344 343 341 340 338 337 333 330 329 327 325 326 322 322 322 317 315 312 313 309 308 302
343 25 55 29 20 17 26 5 358 343 355 346 322 292 271 259 215 136 88 356 349 348 345 344 342 343 342 340 339 337 336 332 330 328 327 325 323 323 330 325 323 322 319 318 314 308 308 305 305
69 74 51 17 36 24 357 329 307 358 355 349 340 329 320 312 274 315 273 332 337 338 338 338 339 339 339 337 337 334 332 331 330 329 328 332 339 329 327 326 323 319 315 311 309 307 305 302 301
108 31 7 16 3 334 276 340 105 13 6 7 4 347 342 319 275 299 304 322 331 334 334 336 338 338 338 337 336 335 334 331 330 331 329 326 326 325 324 323 320 318 316 310 307 305 302 302 297
24 357 21 23 19 18 18 13 42 23 16 20 17 15 356 337 329 301 299 322 332 333 337 339 339 341 342 341 338 338 334 333 333 330 329 326 323 321 319 318 320 320 317 314 310 305 301 296 293
341 4 25 28 22 23 70 28 37 35 26 21 27 27 26 4 338 324 315 340 338 338 340 344 344 341 341 341 341 338 335 334 332 330 327 325 323 321 324 323 322 322 321 317 315 310 304 299 296
1 5 8 60 52 31 40 19 32 12 13 16 19 17 24 24 4 354 353 341 341 345 343 342 341 341 342 342 341 339 337 336 334 332 330 331 332 331 331 331 327 324 322 317 313 310 307 302 298
344 344 8 16 32 5 30 9 22 19 17 18 20 27 27 24 13 10 349 345 344 342 342 341 341 340 342 341 339 340 339 337 336 337 335 335 334 332 332 331 329 327 325 323 320 314 308 299 296
358 355 4 350 352 350 9 20 26 22 22 25 20 17 19 22 359 354 352 348 344 343 342 342 343 342 343 341 342 342 342 342 340 337 335 334 334 334 336 335 331 328 326 324 322 319 314 303 294
342 355 355 3 9 10 19 16 33 33 20 18 12 9 8 7 4 3 359 356 348 345 346 346 345 345 344 343 344 345 347 345 342 342 338 336 336 335 335 333 332 330 328 327 325 321 315 305 297
2 352 5 26 359 355 359 358 27 19 10 12 2 2 7 8 7 8 1 356 352 350 350 350 349 347 346 346 346 347 346 348 346 345 344 340 337 335 336 335 333 329 328 325 324 325 321 307 293
339 354 10 0 356 349 351 3 10 1 359 355 350 354 2 7 9 6 1 354 355 353 352 352 350 349 349 349 347 349 349 349 348 344 343 340 336 335 335 334 333 331 330 330 326 327 326 309 284
345 347 349 350 351 350 346 343 2 356 350 353 358 2 8 7 2 359 357 356 356 354 355 353 353 351 352 351 350 351 351 351 349 346 343 342 339 338 334 334 337 336 339 339 333 307 343 310 270